User: anonymous   Login
Location: Saddleback Butte
(34.6776°N, 117.8050°W)
Time: 08:50:08
(UTC-08:00)
Language:

Cosmos 1862 Rocket - Orbit

View from above orbital plane
View from above orbital plane
View from above satellite
View from above satellite

Ground track
Ground track

The orbit data is extracted from the following two-line orbital elements,

1 18153U 87055B   15056.94720112  .00000403  00000-0  46714-4 0  9999
2 18153 082.5031 175.0784 0020800 340.8076 135.7252 14.82874512493530
Epoch (UTC): 25 February 2015 22:43:58
Eccentricity: 0.0020800
inclination: 82.5031°
perigee height: 606 km
apogee height: 635 km
right ascension of ascending node: 175.0784°
argument of perigee: 340.8076°
revolutions per day: 14.82874512
mean anomaly at epoch: 135.7252°
orbit number at epoch: 49353

The dashed part of the orbit path shows where the satellite is in the earth's shadow,  

DLR